Pensacola Naval Air Station,Forrest Sherman field Pensacola US
ICAO: KNPA
IATA: NPA
Category: Medium
Scheduled Services: No

Elevation: 28 ft
TransAlt. 18000 ft.

Airport Communications:
APP:120.05
ATIS:26.76
SHERMAN CLNC DEL:134.1
DEP:120.65
SHERMAN GND:121.7
SHERMAN BASE OPS:31.21
PMSV METRO:35.96
SHERMAN TWR:120.7

KNPA Zoom In..

If you have problems with the map follow the link
https://www.worldairports.se/pages/airport.php?
ICAO=KNPA

Runways:

(A) RW 01 length 7137 ft width 200 ft
---- / hdg 7

(B) RW 07L length 8002 ft width 200 ft
ILS 109.30 / hdg 70

(C) RW 07R length 8001 ft width 200 ft
---- / hdg 69

(D) RW 19 length 7137 ft width 200 ft
---- / hdg 187

(E) RW 25L length 8001 ft width 200 ft
---- / hdg 249

(F) RW 25R length 8002 ft width 200 ft
---- / hdg 250

Location; KNPA
Day. 16 / Time. 02.56 Zulu
* Altimeter: 30.24
* Temperature: 02° c. 35.6°f.
* Wind from: 000° Speed 00 kn.
Dewpoint: 02° c.
Visibility: 10 Statute Miles.
Clouds: Clear (automated report).

KNPA 160256Z 00000KT 10SM CLR 02/02 A3024 RMK SLP240 LAST T00220017 51016


Wind - Calm.

 
 
jpsmedia.com for Web Design worldairports.se 2018   terms of use